Stations météo

réclame
Mon MeteoGroup
Stockholm/Arlanda, Suède (2460): Température de l'air & dewpoint: 22.05.2018 07:00:00 - 28.05.2018 07:00:00 (CEST)Stockholm/Arlanda, Suède (2460): Vitesse du vent: 22.05.2018 07:00:00 - 28.05.2018 07:00:00 (CEST)Stockholm/Arlanda, Suède (2460): Direction du vent: 22.05.2018 07:00:00 - 28.05.2018 07:00:00 (CEST)Stockholm/Arlanda, Suède (2460): reduced air pressure: 22.05.2018 07:00:00 - 28.05.2018 07:00:00 (CEST)Stockholm/Arlanda, Suède (2460): visibility: 22.05.2018 07:00:00 - 28.05.2018 07:00:00 (CEST)
Date & Time tt [°C] td [°C] ff [km/h] ff [knt] dd ppp [hPa] vv [km]
28.05.2018 07:00:00 - - - - - - -
28.05.2018 06:00:00 9,1 3,3 11 6 NNE 1031,4 45
28.05.2018 05:00:00 7,2 2,5 7 4 N 1031,4 50
28.05.2018 04:00:00 5,5 0,9 7 4 N 1031,5 50
28.05.2018 03:00:00 3,7 0,6 7 4 N 1031,8 50
28.05.2018 02:00:00 4,9 0,5 4 2 NNW 1031,9 50
28.05.2018 01:00:00 5,3 0,3 7 4 N 1031,8 50
28.05.2018 00:00:00 7,0 0,0 4 2 N 1031,6 50
27.05.2018 23:00:00 9,8 -1,0 4 2 NNE 1031,4 50
27.05.2018 22:00:00 12,6 -2,5 11 6 NNE 1031,3 50
27.05.2018 21:00:00 14,5 -3,3 14 8 NE 1031,0 50
27.05.2018 20:00:00 16,2 -4,4 14 8 NNE 1031,0 50
27.05.2018 19:00:00 17,5 -7,1 18 10 NE 1031,0 40
27.05.2018 18:00:00 18,7 -6,1 22 12 NNE 1030,9 40
27.05.2018 17:00:00 19,6 -5,4 22 12 NE 1030,9 45
27.05.2018 16:00:00 20,2 -1,6 22 12 NE 1031,1 45
27.05.2018 15:00:00 20,5 0,9 22 12 NE 1031,5 50
27.05.2018 14:00:00 20,2 1,1 22 12 N 1031,5 40
27.05.2018 13:00:00 20,4 1,8 22 12 NNE 1031,5 30
27.05.2018 12:00:00 20,8 3,9 18 10 N 1031,5 50
27.05.2018 11:00:00 20,2 2,1 18 10 N 1031,4 30
27.05.2018 10:00:00 19,9 3,1 14 8 N 1031,2 40
27.05.2018 09:00:00 17,5 5,1 18 10 NNE 1031,1 35
27.05.2018 08:00:00 15,6 7,1 11 6 NNE 1030,7 40
27.05.2018 07:00:00 13,9 6,5 18 10 N 1030,5 45
27.05.2018 06:00:00 12,7 6,5 18 10 NNE 1030,2 40
27.05.2018 05:00:00 10,1 6,8 11 6 N 1030,2 50
27.05.2018 04:00:00 9,0 6,6 7 4 N 1029,8 45
27.05.2018 03:00:00 9,4 7,0 7 4 N 1029,8 40
27.05.2018 02:00:00 9,6 6,7 11 6 N 1029,6 45
27.05.2018 01:00:00 9,9 7,0 11 6 N 1029,5 45
27.05.2018 00:00:00 9,6 5,6 7 4 N 1028,9 50
26.05.2018 23:00:00 12,8 5,5 7 4 N 1028,9 50
26.05.2018 22:00:00 15,3 4,6 4 2 NNE 1028,4 50
26.05.2018 21:00:00 19,7 3,8 7 4 ENE 1028,3 50
26.05.2018 20:00:00 21,4 3,6 14 8 ENE 1027,8 50
26.05.2018 19:00:00 22,6 4,1 22 12 NE 1027,1 45
26.05.2018 18:00:00 24,9 5,1 14 8 NE 1026,8 45
26.05.2018 17:00:00 25,6 2,9 7 4 WSW 1026,9 40
26.05.2018 16:00:00 25,1 1,2 4 2 WSW 1027,1 35
26.05.2018 15:00:00 24,8 1,0 4 2 WSW 1027,5 45
26.05.2018 14:00:00 24,2 1,1 7 4 SE 1027,9 40
26.05.2018 13:00:00 23,1 0,8 4 2 SSE 1028,1 35
26.05.2018 12:00:00 22,3 1,9 4 2 SSW 1028,4 45
26.05.2018 11:00:00 21,0 0,8 4 2 ESE 1028,8 40
26.05.2018 10:00:00 19,7 5,0 4 2 SW 1028,8 45
26.05.2018 09:00:00 17,9 4,8 4 2 SSW 1028,8 35
26.05.2018 08:00:00 16,3 3,0 0 0 N 1028,9 45
26.05.2018 07:00:00 13,3 5,9 4 2 SW 1029,0 45
26.05.2018 06:00:00 8,4 5,2 0 0 N 1028,8 45
26.05.2018 05:00:00 5,6 3,6 0 0 N 1028,8 35
26.05.2018 04:00:00 5,4 2,9 0 0 N 1029,1 50
26.05.2018 03:00:00 6,5 3,6 0 0 N 1029,1 50
26.05.2018 02:00:00 8,6 4,2 0 0 N 1029,2 50
26.05.2018 01:00:00 11,6 4,1 11 6 ESE 1028,9 50
26.05.2018 00:00:00 12,7 3,4 7 4 SE 1028,6 50
25.05.2018 23:00:00 14,2 2,7 7 4 ESE 1028,4 50
25.05.2018 22:00:00 16,3 2,7 11 6 SE 1028,3 50
25.05.2018 21:00:00 18,1 2,8 11 6 SE 1028,1 50
25.05.2018 20:00:00 19,4 2,7 14 8 SE 1027,8 35
25.05.2018 19:00:00 20,5 2,8 14 8 SE 1027,9 50
25.05.2018 18:00:00 21,4 3,1 14 8 ESE 1027,9 35
25.05.2018 17:00:00 22,0 2,6 18 10 ESE 1028,3 45
25.05.2018 16:00:00 22,9 2,4 14 8 SE 1028,4 50
25.05.2018 15:00:00 23,3 3,2 14 8 ESE 1028,6 40
25.05.2018 14:00:00 23,2 4,2 14 8 SE 1028,7 45
25.05.2018 13:00:00 22,5 4,1 11 6 S 1028,9 35
25.05.2018 12:00:00 22,9 3,9 18 10 SE 1029,3 45
25.05.2018 11:00:00 21,6 3,7 11 6 S 1029,3 45
25.05.2018 10:00:00 20,1 2,9 14 8 S 1029,4 30
25.05.2018 09:00:00 18,6 2,0 14 8 S 1029,6 40
25.05.2018 08:00:00 16,3 1,6 7 4 SSW 1029,6 45
25.05.2018 07:00:00 13,4 3,7 4 2 SSW 1029,7 45
25.05.2018 06:00:00 11,0 4,2 0 0 N 1029,6 50
25.05.2018 05:00:00 8,4 3,6 4 2 SSE 1029,4 45
25.05.2018 04:00:00 8,9 3,3 4 2 SE 1029,5 50
25.05.2018 03:00:00 6,6 2,5 0 0 N 1029,4 50
25.05.2018 02:00:00 9,7 2,8 0 0 N 1029,4 50
25.05.2018 01:00:00 11,7 1,9 11 6 S 1029,3 50
25.05.2018 00:00:00 13,2 1,5 7 4 S 1029,2 50
24.05.2018 23:00:00 14,2 1,5 7 4 S 1029,0 50
24.05.2018 22:00:00 16,0 0,1 11 6 SE 1028,9 50
24.05.2018 21:00:00 17,9 -0,4 14 8 SE 1028,7 50
24.05.2018 20:00:00 20,3 0,7 18 10 SE 1028,5 40
24.05.2018 19:00:00 22,5 3,1 11 6 SSW 1028,3 45
24.05.2018 18:00:00 22,8 2,8 11 6 SSE 1028,6 50
24.05.2018 17:00:00 22,8 2,3 11 6 SSE 1028,9 40
24.05.2018 16:00:00 22,3 1,9 11 6 SSE 1029,4 45
24.05.2018 15:00:00 22,2 2,8 7 4 WSW 1029,9 40
24.05.2018 14:00:00 21,7 1,9 7 4 SSE 1030,5 45
24.05.2018 13:00:00 21,1 0,8 4 2 SSE 1031,0 30
24.05.2018 12:00:00 20,0 -0,1 4 2 SE 1031,3 40
24.05.2018 11:00:00 18,6 -0,3 4 2 SSE 1031,9 45
24.05.2018 10:00:00 16,9 0,9 7 4 E 1032,2 50
24.05.2018 09:00:00 14,9 1,8 11 6 NE 1032,2 45
24.05.2018 08:00:00 12,6 1,9 11 6 ENE 1032,2 50
24.05.2018 07:00:00 10,3 2,4 7 4 NNE 1032,0 45
24.05.2018 06:00:00 7,8 2,5 11 6 N 1031,9 50
24.05.2018 05:00:00 6,2 1,7 11 6 N 1031,5 50
24.05.2018 04:00:00 3,9 0,9 11 6 N 1031,1 50
24.05.2018 03:00:00 5,1 0,5 7 4 NNW 1030,9 50
24.05.2018 02:00:00 3,6 0,6 4 2 NNW 1030,3 50
24.05.2018 01:00:00 4,3 1,2 4 2 NNW 1029,9 50
24.05.2018 00:00:00 6,5 1,2 0 0 N 1029,7 50
23.05.2018 23:00:00 8,2 2,0 0 0 N 1029,5 50
23.05.2018 22:00:00 11,3 2,3 7 4 NNE 1029,3 50
23.05.2018 21:00:00 13,9 2,8 11 6 NNE 1028,5 45
23.05.2018 20:00:00 15,7 3,5 14 8 NNE 1027,9 45
23.05.2018 19:00:00 16,5 3,9 18 10 NNE 1027,4 50
23.05.2018 18:00:00 17,3 3,9 14 8 N 1026,9 45
23.05.2018 17:00:00 17,9 4,8 18 10 N 1026,7 45
23.05.2018 16:00:00 17,7 5,0 18 10 N 1026,5 45
23.05.2018 15:00:00 17,9 5,5 18 10 N 1026,1 35
23.05.2018 14:00:00 17,4 5,3 25 14 NNE 1025,8 45
23.05.2018 13:00:00 17,4 6,0 22 12 N 1025,1 45
23.05.2018 12:00:00 16,3 6,4 18 10 N 1024,4 40
23.05.2018 11:00:00 16,8 7,7 18 10 NNW 1023,5 45
23.05.2018 10:00:00 16,8 8,0 14 8 NW 1022,9 -
23.05.2018 09:00:00 15,7 7,2 18 10 N 1022,2 35
23.05.2018 08:00:00 14,7 7,0 18 10 N 1021,5 40
23.05.2018 07:00:00 13,7 7,2 22 12 N 1021,0 27
23.05.2018 06:00:00 12,5 6,8 11 6 NNW 1020,1 30
23.05.2018 05:00:00 9,1 6,4 7 4 WNW 1019,4 45
23.05.2018 04:00:00 10,5 6,6 4 2 SSE 1018,9 50
23.05.2018 03:00:00 10,5 6,3 0 0 N 1018,8 50
23.05.2018 02:00:00 12,0 6,1 4 2 S 1018,7 50
23.05.2018 01:00:00 13,0 5,4 7 4 S 1018,6 50
23.05.2018 00:00:00 14,1 5,5 4 2 S 1018,5 45
22.05.2018 23:00:00 15,4 6,1 7 4 S 1018,2 45
22.05.2018 22:00:00 16,6 5,8 11 6 S 1018,2 45
22.05.2018 21:00:00 18,4 5,3 14 8 S 1017,8 45
22.05.2018 20:00:00 20,6 4,6 18 10 SSE 1017,7 50
22.05.2018 19:00:00 21,2 4,3 22 12 SSE 1017,7 35
22.05.2018 18:00:00 22,2 4,3 22 12 SSE 1017,8 40
22.05.2018 17:00:00 22,2 4,3 18 10 S 1018,2 45
22.05.2018 16:00:00 22,5 4,1 4 2 SSW 1018,6 35
22.05.2018 15:00:00 22,5 3,6 7 4 SW 1018,9 45
22.05.2018 14:00:00 23,3 3,8 7 4 SW 1019,3 40
22.05.2018 13:00:00 22,3 3,9 11 6 SW 1019,7 40
22.05.2018 12:00:00 21,4 2,1 7 4 SSE 1020,5 45
22.05.2018 11:00:00 20,6 2,4 4 2 SE 1021,3 30
22.05.2018 10:00:00 18,5 5,3 7 4 S 1021,9 40
22.05.2018 09:00:00 16,5 6,6 7 4 SE 1022,1 45
22.05.2018 08:00:00 15,0 6,8 7 4 SE 1022,4 35
22.05.2018 07:00:00 12,8 7,7 11 6 ESE 1022,7 30

tt = Température de l'air
td = dewpoint
ff = Vitesse du vent
dd = Direction du vent
ppp = reduced air pressure
vv = visibility

stations d'obs. à proximité